Regional Weather Roundup
Issued by NWS Sioux Falls, SD

Home | Current Version | Previous Version | Graphics & Text | Print | Product List | Glossary Off
Versions: 1 2 3 4 5 6 7 8 9 10 11 12 13 14 15 16 17 18 19 20 21 22 23 24 25 26 27 28 29 30 31 32 33 34 35 36 37 38 39 40 41 42 43 44 45 46 47 48 49 50

000
ASUS43 KFSD 280810
RWRFSD

WEATHER ROUNDUP FOR SE SOUTH DAKOTA/SW MINNESOTA/NW IOWA
NATIONAL WEATHER SERVICE SIOUX FALLS SD
300 AM CDT WED SEP 28 2016

NOTE: "FAIR" INDICATES FEW OR NO CLOUDS BELOW 12,000 FEET WITH NO
SIGNIFICANT WEATHER AND OR OBSTRUCTIONS TO VISIBILITY.


SDZ038>040-050-052>070-280900-
SOUTHEAST SOUTH DAKOTA

CITY           SKY/WX    TMP DP  RH WIND       PRES   REMARKS
BROOKINGS      MOCLDY    43  41  93 N5        30.03R
CHAMBERLAIN    CLEAR     53  38  58 N6        30.07R
HURON          CLOUDY    36  34  92 NW7       30.06R
MADISON        FAIR      41  41 100 N8        30.03R
MITCHELL       CLOUDY    43  36  76 NW6       30.06R
SIOUX FALLS    CLEAR     47  41  80 N8        30.02R
WINNER         FAIR      50  43  77 W3        30.08R
YANKTON        CLEAR     48  37  66 N8        30.01R
$$

MNZ071-072-080-081-089-090-097-098-280900-
SOUTHWEST MINNESOTA

CITY           SKY/WX    TMP DP  RH WIND       PRES   REMARKS
FAIRMONT       CLOUDY    49  43  80 N10       29.98R
JACKSON        CLEAR     45  41  87 N3        29.99R
LUVERNE        CLOUDY    45  39  81 CALM      30.01R
MARSHALL       CLOUDY    45  41  86 N6        30.03R
MONTEVIDEO     CLEAR     45  41  87 N7        30.05R
PIPESTONE      CLOUDY    50  43  76 NE7       30.01R
REDWOOD FALLS  CLOUDY    47  42  83 N6        30.02R
TRACY          CLEAR     46  44  90 N7        30.02R
WINDOM         CLEAR     45  43  93 N8        30.00R
WORTHINGTON    CLOUDY    49  44  83 N9        30.00R
$$

IAZ001>003-012>014-020>022-031-032-NEZ013-014-SDZ071-280900-
NORTHWEST IOWA

CITY           SKY/WX    TMP DP  RH WIND       PRES   REMARKS
CHEROKEE       CLEAR     46  43  89 CALM      29.98R
DENISON        CLEAR     48  41  76 NE5       29.94R
ESTHERVILLE    CLOUDY    48  44  86 N9        29.98R
LE MARS        PTCLDY    45  41  87 CALM      30.00R
ORANGE CITY    CLEAR     48  43  81 NE5       29.99R
SHELDON        CLOUDY    45  45 100 N6        29.98R
SIOUX CITY     PTCLDY    50  40  68 N8        29.99R
SPENCER        CLOUDY    51  44  77 N10       29.98R
STORM LAKE     CLEAR     50  45  81 N9G17     29.97R
$$

ABBREVIATIONS USED IN REMARKS
   TC - TEMPERATURE IN CELSIUS
  WCI - WIND CHILL INDEX
   HX - HEAT INDEX
  VSB - VISIBILITY





USA.gov is the U.S. government's official web portal to all federal, state and local government web resources and services.